TimePDT,TemperatureF,Dew PointF,Humidity,Sea Level PressureIn,VisibilityMPH,Wind Direction,Wind SpeedMPH,Gust SpeedMPH,PrecipitationIn,Events,Conditions,WindDirDegrees,DateUTC
12:53 AM,57.9,28.9,33,29.75,10.0,SSW,3.5,-,N/A,,Clear,210,2013-06-11 07:53:00
1:53 AM,55.9,32.0,40,29.75,10.0,SE,3.5,-,N/A,,Clear,140,2013-06-11 08:53:00
2:53 AM,53.1,34.0,48,29.76,10.0,South,6.9,-,N/A,,Clear,170,2013-06-11 09:53:00
3:53 AM,51.1,33.1,50,29.77,10.0,SSE,8.1,-,N/A,,Clear,160,2013-06-11 10:53:00
4:53 AM,52.0,35.1,53,29.78,10.0,South,10.4,-,N/A,,Partly Cloudy,180,2013-06-11 11:53:00
5:53 AM,48.9,37.0,64,29.81,10.0,SSW,9.2,-,N/A,,Partly Cloudy,200,2013-06-11 12:53:00
6:53 AM,51.1,39.0,63,29.83,10.0,SSE,9.2,-,N/A,,Partly Cloudy,150,2013-06-11 13:53:00
7:53 AM,54.0,39.9,59,29.84,10.0,SSE,9.2,-,N/A,,Mostly Cloudy,150,2013-06-11 14:53:00
8:53 AM,57.0,42.1,57,29.86,10.0,South,8.1,19.6,N/A,,Scattered Clouds,190,2013-06-11 15:53:00
9:53 AM,60.1,41.0,49,29.86,10.0,SSW,12.7,20.7,N/A,,Scattered Clouds,200,2013-06-11 16:53:00
10:53 AM,62.1,41.0,46,29.87,10.0,SSW,12.7,-,N/A,,Scattered Clouds,210,2013-06-11 17:53:00
11:53 AM,64.0,37.0,37,29.88,10.0,SSW,12.7,20.7,N/A,,Scattered Clouds,200,2013-06-11 18:53:00
12:53 PM,66.0,36.0,33,29.88,10.0,South,12.7,24.2,N/A,,Mostly Cloudy,180,2013-06-11 19:53:00
1:53 PM,66.9,36.0,32,29.88,10.0,SSW,16.1,23.0,N/A,,Mostly Cloudy,200,2013-06-11 20:53:00
2:53 PM,66.0,30.0,26,29.90,10.0,SSW,18.4,23.0,N/A,,Mostly Cloudy,200,2013-06-11 21:53:00
3:53 PM,66.9,33.1,28,29.90,10.0,South,12.7,20.7,N/A,,Mostly Cloudy,170,2013-06-11 22:53:00
4:53 PM,68.0,33.1,27,29.90,10.0,SSW,11.5,23.0,N/A,,Mostly Cloudy,210,2013-06-11 23:53:00
5:53 PM,66.9,30.9,26,29.91,10.0,SSW,16.1,-,N/A,,Scattered Clouds,210,2013-06-12 00:53:00
6:53 PM,66.0,30.9,27,29.92,10.0,South,13.8,-,N/A,,Scattered Clouds,190,2013-06-12 01:53:00
7:53 PM,64.0,34.0,33,29.93,10.0,SSW,16.1,-,N/A,,Partly Cloudy,200,2013-06-12 02:53:00
8:53 PM,61.0,36.0,39,29.95,10.0,SSW,11.5,-,N/A,,Partly Cloudy,200,2013-06-12 03:53:00
9:53 PM,57.9,37.0,46,29.97,10.0,South,6.9,-,N/A,,Partly Cloudy,190,2013-06-12 04:53:00
10:53 PM,55.9,34.0,44,29.98,10.0,South,6.9,-,N/A,,Clear,170,2013-06-12 05:53:00
11:53 PM,51.1,36.0,56,29.99,10.0,South,8.1,-,N/A,,Clear,190,2013-06-12 06:53:00